This is the latest recevied weather packets stored in our database for station/object N7IGG. If no packets are shown the sender has not sent any weather packets the latest 10 day(s).
| Time | Temp. | Humidity | Pressure | Rain* | Wind** | Luminosity | Snow |
|---|---|---|---|---|---|---|---|
| 1777610295 | 16.67° C | 67% | 1016.2 hPa | 0 mm | - | 0 W/m² | - |
| 1777609992 | 16.67° C | 67% | 1016.2 hPa | 0 mm | - | 0 W/m² | - |
| 1777609689 | 16.67° C | 68% | 1016.2 hPa | 0 mm | - | 0 W/m² | - |
| 1777609386 | 16.67° C | 68% | 1016.1 hPa | 0 mm | - | 0 W/m² | - |
| 1777609084 | 16.67° C | 68% | 1016.1 hPa | 0 mm | - | 0 W/m² | - |
| 1777608781 | 16.11° C | 69% | 1016.1 hPa | 0 mm | - | 0 W/m² | - |
| 1777608476 | 16.67° C | 69% | 1015.9 hPa | 0 mm | - | 0 W/m² | - |
| 1777608175 | 16.67° C | 67% | 1015.9 hPa | 0 mm | - | 0 W/m² | - |
| 1777607871 | 17.22° C | 67% | 1015.8 hPa | 0 mm | - | 0 W/m² | - |
| 1777607567 | 17.78° C | 63% | 1015.8 hPa | 0 mm | - | 0 W/m² | - |
| 1777607264 | 17.78° C | 62% | 1015.6 hPa | 0 mm | - | 0 W/m² | - |
| 1777606960 | 17.78° C | 62% | 1015.6 hPa | 0 mm | - | 0 W/m² | - |
| 1777606656 | 17.78° C | 62% | 1015.7 hPa | 0 mm | - | 0 W/m² | - |
| 1777606352 | 17.78° C | 62% | 1015.7 hPa | 0 mm | - | 0 W/m² | - |
| 1777606052 | 17.78° C | 62% | 1015.7 hPa | 0 mm | - | 0 W/m² | - |
| 1777605748 | 18.33° C | 63% | 1015.7 hPa | 0 mm | - | 0 W/m² | - |
| 1777605447 | 18.33° C | 63% | 1015.8 hPa | 0 mm | - | 0 W/m² | - |
| 1777605145 | 18.89° C | 62% | 1015.5 hPa | 0 mm | - | 2 W/m² | - |
| 1777604839 | 18.89° C | 62% | 1015.6 hPa | 0 mm | - | 6 W/m² | - |
| 1777604536 | 18.89° C | 64% | 1015.6 hPa | 0 mm | - | 10 W/m² | - |
| 1777604232 | 18.89° C | 64% | 1015.6 hPa | 0 mm | - | 10 W/m² | - |
| 1777603928 | 19.44° C | 63% | 1015.7 hPa | 0 mm | - | 12 W/m² | - |
| 1777603625 | 19.44° C | 64% | 1015.6 hPa | 0 mm | - | 16 W/m² | - |
| 1777603321 | 19.44° C | 62% | 1015.8 hPa | 0 mm | - | 21 W/m² | - |
| 1777603016 | 20° C | 62% | 1015.6 hPa | 0 mm | - | 26 W/m² | - |
* Rain latest hour (hover to see other rain measurements)
** Current wind speed in m/s (hover to see current wind gust speed)